Time,TemperatureF,DewpointF,PressureIn,WindDirection,WindDirectionDegrees,WindSpeedMPH,WindSpeedGustMPH,Humidity,HourlyPrecipIn,Conditions,Clouds,dailyrainin,SoftwareType,DateUTC
2013-08-08 00:01:00,75.0,71.0,30.07,SSE,165,2.0,5.0,88,0.00,,,-99.99,,2013-08-08 04:01:00,
2013-08-08 00:12:00,75.0,72.0,30.07,SSE,163,1.0,4.0,89,0.00,,,-99.99,,2013-08-08 04:12:00,
2013-08-08 00:22:00,75.0,72.0,30.07,SSE,150,4.0,6.0,89,0.00,,,-99.99,,2013-08-08 04:22:00,
2013-08-08 00:33:00,75.0,71.0,30.07,SSE,155,3.0,5.0,88,0.00,,,-99.99,,2013-08-08 04:33:00,
2013-08-08 00:43:00,75.0,71.0,30.07,SSE,162,2.0,5.0,88,0.00,,,-99.99,,2013-08-08 04:43:00,
2013-08-08 00:53:00,75.0,71.0,30.06,SSE,162,1.0,4.0,87,0.00,,,-99.99,,2013-08-08 04:53:00,
2013-08-08 01:02:00,75.0,71.0,30.06,SE,146,3.0,6.0,87,0.00,,,-99.99,,2013-08-08 05:02:00,
2013-08-08 01:11:00,75.0,71.0,30.06,SSE,149,0.0,5.0,87,0.00,,,-99.99,,2013-08-08 05:11:00,
2013-08-08 01:22:00,75.0,71.0,30.06,SSE,149,0.0,4.0,86,0.00,,,-99.99,,2013-08-08 05:22:00,
2013-08-08 01:33:00,75.0,71.0,30.06,SSE,149,1.0,4.0,86,0.00,,,-99.99,,2013-08-08 05:33:00,
2013-08-08 01:43:00,75.0,71.0,30.06,SSE,149,0.0,2.0,86,0.00,,,-99.99,,2013-08-08 05:43:00,
2013-08-08 01:52:00,74.0,70.0,30.06,SSE,148,1.0,2.0,87,0.00,,,-99.99,,2013-08-08 05:52:00,
2013-08-08 02:01:00,74.0,70.0,30.06,SE,145,3.0,5.0,86,0.00,,,-99.99,,2013-08-08 06:01:00,
2013-08-08 02:22:00,74.0,70.0,30.06,SSE,147,1.0,5.0,86,0.00,,,-99.99,,2013-08-08 06:22:00,
2013-08-08 02:32:00,74.0,70.0,30.06,SE,146,0.0,4.0,87,0.00,,,-99.99,,2013-08-08 06:32:00,
2013-08-08 02:43:00,74.0,70.0,30.06,SE,146,0.0,4.0,87,0.00,,,-99.99,,2013-08-08 06:43:00,
2013-08-08 02:52:00,74.0,70.0,30.06,NNE,19,0.0,4.0,88,0.00,,,-99.99,,2013-08-08 06:52:00,
2013-08-08 03:02:00,74.0,70.0,30.06,NNE,19,0.0,2.0,88,0.00,,,-99.99,,2013-08-08 07:02:00,
2013-08-08 03:22:00,74.0,70.0,30.06,ESE,113,3.0,5.0,88,0.00,,,-99.99,,2013-08-08 07:22:00,
2013-08-08 03:32:00,74.0,70.0,30.06,ESE,117,2.0,4.0,88,0.00,,,-99.99,,2013-08-08 07:32:00,
2013-08-08 03:43:00,74.0,70.0,30.05,SE,130,4.0,5.0,88,0.00,,,-99.99,,2013-08-08 07:43:00,
2013-08-08 03:53:00,74.0,70.0,30.05,SE,136,4.0,7.0,88,0.00,,,-99.99,,2013-08-08 07:53:00,
2013-08-08 04:02:00,73.0,69.0,30.05,SE,144,2.0,7.0,88,0.00,,,-99.99,,2013-08-08 08:02:00,
2013-08-08 04:22:00,73.0,69.0,30.05,SE,133,6.0,7.0,88,0.00,,,-99.99,,2013-08-08 08:22:00,
2013-08-08 04:53:00,73.0,70.0,30.05,SE,136,4.0,8.0,89,0.00,,,-99.99,,2013-08-08 08:53:00,
2013-08-08 05:02:00,73.0,70.0,30.05,SE,138,5.0,7.0,89,0.00,,,-99.99,,2013-08-08 09:02:00,
2013-08-08 05:12:00,73.0,70.0,30.04,SE,138,0.0,6.0,89,0.00,,,-99.99,,2013-08-08 09:12:00,
2013-08-08 05:43:00,73.0,70.0,30.04,East,86,1.0,4.0,90,0.00,,,-99.99,,2013-08-08 09:43:00,
2013-08-08 05:53:00,72.0,69.0,30.04,East,85,2.0,4.0,90,0.00,,,-99.99,,2013-08-08 09:53:00,
2013-08-08 06:01:00,72.0,69.0,30.04,East,94,3.0,6.0,90,0.00,,,-99.99,,2013-08-08 10:01:00,
2013-08-08 06:12:00,72.0,69.0,30.05,ESE,109,2.0,5.0,91,0.00,,,-99.99,,2013-08-08 10:12:00,
2013-08-08 06:22:00,72.0,69.0,30.04,East,98,3.0,6.0,90,0.00,,,-99.99,,2013-08-08 10:22:00,
2013-08-08 06:32:00,72.0,69.0,30.05,East,96,3.0,5.0,91,0.00,,,-99.99,,2013-08-08 10:32:00,
2013-08-08 06:43:00,72.0,69.0,30.05,ESE,102,2.0,5.0,90,0.00,,,-99.99,,2013-08-08 10:43:00,
2013-08-08 06:52:00,72.0,69.0,30.05,ESE,118,2.0,6.0,90,0.00,,,-99.99,,2013-08-08 10:52:00,
2013-08-08 07:02:00,72.0,69.0,30.06,SE,131,5.0,8.0,90,0.00,,,-99.99,,2013-08-08 11:02:00,
2013-08-08 07:11:00,72.0,69.0,30.06,SE,131,2.0,6.0,91,0.00,,,-99.99,,2013-08-08 11:11:00,
2013-08-08 07:22:00,72.0,69.0,30.06,East,84,2.0,5.0,90,0.00,,,-99.99,,2013-08-08 11:22:00,
2013-08-08 07:32:00,72.0,69.0,30.06,SE,125,3.0,7.0,90,0.00,,,-99.99,,2013-08-08 11:32:00,
2013-08-08 07:43:00,72.0,69.0,30.06,SE,128,4.0,7.0,91,0.00,,,-99.99,,2013-08-08 11:43:00,
2013-08-08 07:52:00,72.0,69.0,30.06,SE,125,5.0,7.0,91,0.00,,,-99.99,,2013-08-08 11:52:00,
2013-08-08 08:02:00,72.0,69.0,30.06,SE,137,3.0,5.0,90,0.00,,,-99.99,,2013-08-08 12:02:00,
2013-08-08 08:22:00,72.0,69.0,30.06,SE,132,3.0,8.0,90,0.00,,,-99.99,,2013-08-08 12:22:00,
2013-08-08 08:32:00,73.0,70.0,30.06,East,90,2.0,6.0,90,0.00,,,0.00,,2013-08-08 12:32:00,
2013-08-08 08:43:00,73.0,70.0,30.06,SE,126,3.0,6.0,89,0.00,,,0.00,,2013-08-08 12:43:00,
2013-08-08 08:53:00,73.0,70.0,30.07,SE,135,2.0,7.0,89,0.00,,,0.00,,2013-08-08 12:53:00,
2013-08-08 09:01:00,74.0,70.0,30.07,SE,134,2.0,5.0,87,0.00,,,0.00,,2013-08-08 13:01:00,
2013-08-08 09:22:00,75.0,70.0,30.07,ESE,121,1.0,5.0,85,0.00,,,0.00,,2013-08-08 13:22:00,
2013-08-08 09:32:00,75.0,70.0,30.07,SE,130,3.0,7.0,84,0.00,,,0.00,,2013-08-08 13:32:00,
2013-08-08 09:43:00,76.0,70.0,30.07,SE,146,2.0,6.0,83,0.00,,,0.00,,2013-08-08 13:43:00,
2013-08-08 09:52:00,76.0,70.0,30.07,SSW,201,0.0,6.0,82,0.00,,,0.00,,2013-08-08 13:52:00,
2013-08-08 10:02:00,76.0,70.0,30.07,ESE,107,3.0,5.0,81,0.00,,,0.00,,2013-08-08 14:02:00,
2013-08-08 10:22:00,76.0,70.0,30.07,East,82,5.0,7.0,82,0.00,,,0.00,,2013-08-08 14:22:00,
2013-08-08 10:53:00,77.0,70.0,30.06,SE,134,4.0,8.0,80,0.00,,,0.00,,2013-08-08 14:53:00,
2013-08-08 11:02:00,78.0,71.0,30.06,SE,130,4.0,9.0,78,0.00,,,0.00,,2013-08-08 15:02:00,
2013-08-08 11:32:00,79.0,71.0,30.07,ENE,71,3.0,9.0,76,0.00,,,0.00,,2013-08-08 15:32:00,
2013-08-08 11:43:00,79.0,70.0,30.07,ESE,117,6.0,8.0,75,0.00,,,0.00,,2013-08-08 15:43:00,
2013-08-08 11:53:00,79.0,70.0,30.07,SSE,151,4.0,7.0,73,0.00,,,0.00,,2013-08-08 15:53:00,
2013-08-08 12:02:00,80.0,71.0,30.07,SW,214,0.0,6.0,75,0.00,,,0.00,,2013-08-08 16:02:00,
2013-08-08 12:11:00,80.0,71.0,30.07,ESE,117,5.0,7.0,75,0.00,,,0.00,,2013-08-08 16:11:00,
2013-08-08 12:22:00,80.0,72.0,30.07,SSE,167,2.0,8.0,76,0.00,,,0.00,,2013-08-08 16:22:00,
2013-08-08 12:32:00,80.0,71.0,30.07,SE,131,6.0,8.0,75,0.00,,,0.00,,2013-08-08 16:32:00,
2013-08-08 12:42:00,81.0,72.0,30.07,SSE,148,6.0,10.0,73,0.00,,,0.00,,2013-08-08 16:42:00,
2013-08-08 13:32:00,81.0,72.0,30.05,SE,124,5.0,9.0,75,0.00,,,0.00,,2013-08-08 17:32:00,
2013-08-08 13:43:00,80.0,72.0,30.05,SE,144,7.0,11.0,77,0.00,,,0.00,,2013-08-08 17:43:00,
2013-08-08 13:52:00,80.0,73.0,30.05,SSE,163,6.0,9.0,80,0.00,,,0.00,,2013-08-08 17:52:00,
2013-08-08 14:02:00,80.0,73.0,30.05,SE,134,7.0,12.0,80,0.00,,,0.00,,2013-08-08 18:02:00,
2013-08-08 14:43:00,80.0,74.0,30.05,South,173,5.0,9.0,81,0.01,,,0.01,,2013-08-08 18:43:00,
2013-08-08 14:52:00,80.0,74.0,30.04,ESE,116,8.0,14.0,81,0.01,,,0.01,,2013-08-08 18:52:00,
2013-08-08 15:01:00,80.0,73.0,30.04,SE,141,4.0,10.0,80,0.01,,,0.01,,2013-08-08 19:01:00,
2013-08-08 15:12:00,81.0,74.0,30.03,SSE,156,5.0,9.0,79,0.01,,,0.01,,2013-08-08 19:12:00,
2013-08-08 15:22:00,82.0,74.0,30.03,SE,132,2.0,9.0,77,0.00,,,0.01,,2013-08-08 19:22:00,
2013-08-08 15:32:00,82.0,74.0,30.03,SE,125,6.0,12.0,77,0.00,,,0.01,,2013-08-08 19:32:00,
2013-08-08 15:43:00,81.0,74.0,30.03,SSW,209,3.0,13.0,80,0.00,,,0.01,,2013-08-08 19:43:00,
2013-08-08 15:56:00,80.0,74.0,30.03,SSE,158,5.0,11.0,81,0.00,,,0.01,,2013-08-08 19:56:00,
2013-08-08 16:02:00,80.0,74.0,30.02,South,188,5.0,11.0,81,0.00,,,0.01,,2013-08-08 20:02:00,
2013-08-08 16:32:00,77.0,72.0,30.03,SE,140,5.0,12.0,85,0.00,,,0.01,,2013-08-08 20:32:00,
2013-08-08 16:42:00,77.0,72.0,30.03,SW,225,3.0,10.0,86,0.00,,,0.01,,2013-08-08 20:42:00,
2013-08-08 16:52:00,76.0,72.0,30.03,SSE,149,4.0,9.0,86,0.06,,,0.07,,2013-08-08 20:52:00,
2013-08-08 17:01:00,75.0,71.0,30.02,SE,134,3.0,5.0,87,0.09,,,0.10,,2013-08-08 21:01:00,
2013-08-08 17:14:00,75.0,71.0,30.03,SE,144,1.0,7.0,86,0.09,,,0.10,,2013-08-08 21:14:00,
2013-08-08 17:26:00,75.0,71.0,30.03,SW,224,3.0,5.0,87,0.09,,,0.10,,2013-08-08 21:26:00,
2013-08-08 18:16:00,74.0,72.0,30.03,North,11,3.0,7.0,93,0.41,,,0.51,,2013-08-08 22:16:00,
2013-08-08 19:06:00,74.0,72.0,30.03,NE,50,1.0,2.0,94,0.26,,,0.70,,2013-08-08 23:06:00,
2013-08-08 19:25:00,75.0,73.0,30.03,ENE,65,1.0,3.0,95,0.12,,,0.70,,2013-08-08 23:25:00,
2013-08-08 19:37:00,74.0,72.0,30.03,ENE,78,0.0,2.0,94,0.07,,,0.70,,2013-08-08 23:37:00,
2013-08-08 19:47:00,74.0,72.0,30.03,SE,136,3.0,5.0,94,0.03,,,0.70,,2013-08-08 23:47:00,
2013-08-08 19:55:00,74.0,72.0,30.03,SE,136,1.0,5.0,94,0.00,,,0.70,,2013-08-08 23:55:00,
2013-08-08 20:06:00,75.0,73.0,30.03,SE,136,0.0,1.0,94,0.00,,,0.70,,2013-08-09 00:06:00,
2013-08-08 20:16:00,75.0,73.0,30.03,SE,136,0.0,1.0,94,0.00,,,0.70,,2013-08-09 00:16:00,
2013-08-08 20:35:00,75.0,73.0,30.03,SE,133,0.0,2.0,94,0.01,,,0.71,,2013-08-09 00:35:00,
2013-08-08 20:46:00,75.0,73.0,30.04,SE,129,0.0,1.0,94,0.01,,,0.71,,2013-08-09 00:46:00,
2013-08-08 21:03:00,75.0,73.0,30.03,SE,129,1.0,4.0,94,0.01,,,0.71,,2013-08-09 01:03:00,
2013-08-08 21:57:00,74.0,72.0,30.03,SE,124,2.0,4.0,93,0.00,,,0.71,,2013-08-09 01:57:00,
2013-08-08 22:04:00,74.0,72.0,30.03,SE,125,3.0,4.0,93,0.00,,,0.71,,2013-08-09 02:04:00,
2013-08-08 22:56:00,74.0,72.0,30.03,SE,132,2.0,4.0,95,0.00,,,0.71,,2013-08-09 02:56:00,
2013-08-08 23:08:00,74.0,72.0,30.03,SE,132,0.0,2.0,95,0.00,,,0.71,,2013-08-09 03:08:00,
2013-08-08 23:35:00,74.0,72.0,30.03,SE,132,2.0,4.0,95,0.00,,,0.71,,2013-08-09 03:35:00,
2013-08-08 23:47:00,74.0,72.0,30.03,SE,132,0.0,1.0,95,0.00,,,0.71,,2013-08-09 03:47:00,